Tracking 19226 objects as of 23-Jul-2018
HD Live streaming from Space Station
objects crossing your sky now

FENGYUN 1C DEB

Track FENGYUN 1C DEB now!
10-day predictions


NORAD ID: 30114
Int'l Code: 1999-025RT
Perigee: 813.4 km
Apogee: 933.8 km
Inclination: 98.9 °
Period: 102.3 minutes
Semi major axis: 7244 km
RCS: 0.0541 m2 (small)
Launch date: May 10, 1999
Source: People's Republic of China (PRC)
Launch site: Taiyaun Space Center, China (TSC)

Note: This is SATELLITE DEBRIS
aabbcc
Your satellite tracking list
Your tracking list is empty




NASA's NSSDC Master Catalog

Two Line Element Set (TLE):
1 30114U 99025RT  18203.94268787 +.00000029 +00000-0 +41246-4 0  9991
2 30114 098.9239 232.1615 0083038 168.5035 310.4765 14.07929544591513
Source of the keplerian elements: AFSPC